Location: Antoign�
(47.0844°N, 0.1131°W)
Time: 02:48:36
(UTC+00:00)

Helios 1A Rocket - Pass Details

Date: 03 March 2021
Orbit: 563 x 585 km, 98.3° (Epoch: 17 April)

Event Time Altitude Azimuth Distance (km) Brightness Sun altitude
Rises 19:13:11 0° 173° (S) 2,767 6.3 -15.1°
Reaches altitude 10° 19:15:21 10° 176° (S) 1,871 5.4 -15.5°
Maximum altitude 19:19:21 62° 258° (WSW) 645 3.4 -16.2°
Drops below altitude 10° 19:23:23 10° 340° (NNW) 1,875 5.9 -16.8°
Sets 19:25:33 0° 343° (NNW) 2,775 6.8 -17.2°
